Glens Falls, NY

8:26 AM EST on December 15, 2019 (GMT -0500)
Bennett Memorial

Weather History for KGFL - November, 2019

Change the Weather History Date:

Saturday, November 16, 2019

  Actual Average Record
Temperature  
Mean Temperature 21 °F 37 °F  
Max Temperature 29 °F 46 °F 69 °F (1989)
Min Temperature 13 °F 27 °F 1 °F (1933)
Degree Days  
Heating Degree Days 44 28  
Month to date heating degree days 520 410  
Since 1 July heating degree days 1211 1265  
Cooling Degree Days 0 0  
Month to date cooling degree days 0 0  
Year to date cooling degree days 416 352  
Moisture  
Dew Point 6 °F    
Average Humidity 50    
Maximum Humidity 67    
Minimum Humidity 33    
Precipitation  
Precipitation 0.00 in 0.11 in 0.96 in (1965)
Month to date precipitation 0.72 1.74  
Year to date precipitation 39.42 34.44  
Sea Level Pressure  
Sea Level Pressure 30.56 in    
Wind  
Wind Speed 9 mph (NE)    
Max Wind Speed 18 mph    
Max Gust Speed 26 mph    
Visibility 10 miles    
Events      
T = Trace of Precipitation, MM = Missing Value Source: NWS Daily Summary

Daily Weather History Graph

Daily Weather History Graph

Search for Another Location

Airport or City:

Astronomy

Nov. 16, 2019 Rise Set
Actual Time 6:48 AM EST 4:29 PM EST
Civil Twilight 6:17 AM EST 5:00 PM EST
Nautical Twilight 5:43 AM EST 5:34 PM EST
Astronomical Twilight 5:09 AM EST 6:08 PM EST
Moon 7:56 PM EST (11/16) 10:43 AM EST (11/16)
Length of Visible Light 10h 42m
Length of Day
9h 40m
Waning Gibbous, 82% of the Moon is Illuminated
Nov 16
Waning Gibbous
Nov 19
Last Quarter
Nov 26
New
Dec 4
First Quarter
Dec 12
Full

Hourly Weather History & Observations

Time (EST) Temp. Windchill Dew Point Humidity Pressure Visibility Wind Dir Wind Speed Gust Speed Precip Events Conditions
12:53 AM 27.0 °F 15.2 °F 7.0 °F 43% 30.38 in 10.0 mi NW 15.0 mph - N/A   Clear
1:53 AM 25.0 °F 13.6 °F 7.0 °F 46% 30.42 in 10.0 mi NNW 12.7 mph - N/A   Clear
2:53 AM 24.1 °F 13.1 °F 7.0 °F 48% 30.44 in 10.0 mi NNE 11.5 mph 17.3 mph N/A   Clear
3:53 AM 21.9 °F 10.4 °F 3.0 °F 44% 30.46 in 10.0 mi NNE 11.5 mph - N/A   Clear
4:53 AM 19.9 °F 10.1 °F 6.1 °F 55% 30.50 in 10.0 mi ENE 8.1 mph - N/A   Clear
5:53 AM 19.0 °F 8.2 °F 6.1 °F 57% 30.54 in 10.0 mi ENE 9.2 mph - N/A   Clear
6:53 AM 18.0 °F 8.7 °F 7.0 °F 62% 30.57 in 10.0 mi ENE 6.9 mph - N/A   Clear
7:53 AM 18.0 °F 7.7 °F 9.0 °F 68% 30.60 in 10.0 mi ENE 8.1 mph - N/A   Clear
8:53 AM 19.0 °F 8.2 °F 10.0 °F 68% 30.62 in 10.0 mi NE 9.2 mph - N/A   Clear
9:53 AM 21.0 °F 9.9 °F 9.0 °F 60% 30.63 in 10.0 mi NE 10.4 mph - N/A   Clear
10:53 AM 23.0 °F 14.7 °F 10.0 °F 58% 30.63 in 10.0 mi ENE 6.9 mph - N/A   Clear
11:53 AM 24.1 °F 14.4 °F 8.1 °F 51% 30.61 in 10.0 mi ENE 9.2 mph - N/A   Clear
12:53 PM 26.1 °F 16.2 °F 8.1 °F 47% 30.59 in 10.0 mi NE 10.4 mph - N/A   Clear
1:53 PM 27.0 °F 15.6 °F 3.0 °F 36% 30.57 in 10.0 mi NE 13.8 mph - N/A   Clear
2:53 PM 26.1 °F 15.6 °F 1.9 °F 35% 30.57 in 10.0 mi ENE 11.5 mph - N/A   Clear
3:53 PM 25.0 °F 14.8 °F 3.0 °F 39% 30.56 in 10.0 mi NE 10.4 mph - N/A   Clear
4:53 PM 23.0 °F 14.7 °F 5.0 °F 46% 30.57 in 10.0 mi ENE 6.9 mph - N/A   Clear
5:53 PM 21.9 °F 15.7 °F 5.0 °F 48% 30.60 in 10.0 mi NE 4.6 mph - N/A   Clear
6:53 PM 19.0 °F 12.3 °F 5.0 °F 54% 30.61 in 10.0 mi NNW 4.6 mph - N/A   Clear
7:53 PM 19.0 °F 11.1 °F 3.9 °F 52% 30.60 in 10.0 mi North 5.8 mph - N/A   Clear
8:53 PM 19.9 °F 9.3 °F 5.0 °F 52% 30.60 in 10.0 mi North 9.2 mph - N/A   Clear
9:53 PM 19.0 °F 9.0 °F 6.1 °F 57% 30.58 in 10.0 mi North 8.1 mph - N/A   Clear
10:53 PM 15.1 °F - 6.1 °F 68% 30.58 in 10.0 mi Calm Calm - N/A   Clear
11:53 PM 14.0 °F 6.5 °F 7.0 °F 74% 30.56 in 10.0 mi North 4.6 mph - N/A   Clear